Home   Weather   Bimbo   Past weeks

Flag for Central African Republic Past Weather in Bimbo, Central African Republic — Yesterday and Last 2 Weeks

Now
72 °F

Fog.


Feels Like: 65 °F
Forecast: 69 / 91 °F
Wind: No wind

Location: Bangui Airport

Current Time: Jan 22, 2017 at 7:02:03 am

Latest Report: Jan 22, 2017 at 6:00 am


Visibility: 2 mi

Pressure: 29.80 "Hg

Humidity: 100%

Dew Point: 72 °F

Location of BimboLocation

Past Weather in Bimbo — Graph

°F

Bimbo Temperature Yesterday

Maximum temperature yesterday: 93 °F (at 2:00 pm)
Minimum temperature yesterday: 72 °F (at 7:00 am)
Average temperature yesterday: 81 °F

High & Low Weather Summary for the Past Weeks

 TemperatureHumidityPressure
High97 °F (Jan 15, 2:00 pm)100% (Jan 7, 6:00 am)29.92 "Hg (Jan 7, 6:00 am)
Low63 °F (Jan 10, 5:00 am)17% (Jan 11, 2:00 pm)29.65 "Hg (Jan 16, 4:00 pm)
Average79 °F71%29.79 "Hg
* Reported Jan 7 5:00 am — Jan 22 5:00 am, Bimbo, Weather by CustomWeather, © 2017

Note: Actual official high and low records may vary slightly from our data, if they occured in-between our weather recording intervals... More about our weather records

Advertising

Bimbo Weather History for the Previous 24 Hours

Scroll right to see more
 ConditionsComfort  
Time TempWeatherWind HumidityBarometerVisibility
5:00 am
Sun, Jan 22
73 °FPassing clouds.No wind100%29.80 "Hg4 mi
4:00 am73 °FPassing clouds.1 mph100%29.77 "Hg4 mi
3:00 am75 °FPassing clouds.2 mph100%29.77 "Hg4 mi
2:00 am75 °FPassing clouds.No wind100%29.77 "Hg4 mi
1:00 am75 °FPassing clouds.No wind100%29.77 "Hg4 mi
12:00 am77 °FPassing clouds.No wind94%29.77 "Hg4 mi
11:00 pm
Sat, Jan 21
75 °FClear.No wind100%29.80 "Hg10 mi
10:00 pm77 °FClear.No wind100%29.80 "Hg10 mi
9:00 pm79 °FClear.No wind94%29.80 "Hg10 mi
8:00 pm79 °FClear.No wind94%29.77 "Hg10 mi
7:00 pm81 °FClear.No wind89%29.77 "Hg10 mi
6:00 pm82 °FClear.3 mph84%29.74 "Hg10 mi
5:00 pm88 °FSunny.5 mph66%29.74 "Hg10 mi
4:00 pm91 °FSunny.5 mph52%29.71 "Hg10 mi
3:00 pm93 °FSunny.7 mph47%29.71 "Hg10 mi
2:00 pm93 °FSunny.3 mph47%29.74 "Hg10 mi
1:00 pm90 °FSunny.2 mph52%29.77 "Hg10 mi
12:00 pm86 °FSunny.3 mph55%29.80 "Hg10 mi
11:00 am84 °FPassing clouds.3 mph62%29.83 "HgN/A
10:00 am81 °FPassing clouds.5 mph70%29.86 "HgN/A
9:00 am77 °FPassing clouds.5 mph79%29.86 "HgN/A
8:00 am73 °FSunny.3 mph89%29.86 "Hg10 mi
7:00 am72 °FPassing clouds.3 mph94%29.80 "HgN/A
Weather by CustomWeather, © 2017

See weather overviewHow to use our weather pages